TimeEDT,TemperatureF,Dew PointF,Humidity,Sea Level PressureIn,VisibilityMPH,Wind Direction,Wind SpeedMPH,Gust SpeedMPH,PrecipitationIn,Events,Conditions,WindDirDegrees,DateUTC
12:53 AM,35.1,28.0,76,30.19,10.0,South,4.6,-,N/A,,Partly Cloudy,180,2012-10-11 04:53:00
1:53 AM,35.1,28.0,76,30.20,10.0,SSW,8.1,-,N/A,,Partly Cloudy,210,2012-10-11 05:53:00
2:53 AM,33.1,27.0,78,30.20,10.0,SSE,3.5,-,N/A,,Clear,160,2012-10-11 06:53:00
3:53 AM,34.0,27.0,75,30.21,10.0,SSW,4.6,-,N/A,,Clear,210,2012-10-11 07:53:00
4:53 AM,30.9,27.0,85,30.22,10.0,South,4.6,-,N/A,,Scattered Clouds,180,2012-10-11 08:53:00
5:53 AM,32.0,27.0,82,30.21,10.0,South,4.6,-,N/A,,Partly Cloudy,170,2012-10-11 09:53:00
6:53 AM,33.1,27.0,78,30.21,10.0,South,6.9,-,N/A,,Partly Cloudy,170,2012-10-11 10:53:00
7:53 AM,33.1,28.0,82,30.22,10.0,South,5.8,-,N/A,,Partly Cloudy,190,2012-10-11 11:53:00
8:53 AM,36.0,28.9,76,30.22,10.0,SSW,6.9,-,N/A,,Partly Cloudy,200,2012-10-11 12:53:00
9:53 AM,43.0,30.9,62,30.21,10.0,SSW,15.0,-,N/A,,Partly Cloudy,200,2012-10-11 13:53:00
10:53 AM,50.0,32.0,50,30.19,10.0,SSW,13.8,-,N/A,,Partly Cloudy,200,2012-10-11 14:53:00
11:53 AM,54.0,30.9,41,30.17,10.0,SSW,25.3,31.1,N/A,,Scattered Clouds,200,2012-10-11 15:53:00
12:53 PM,57.0,30.0,36,30.14,10.0,SW,26.5,34.5,N/A,,Partly Cloudy,220,2012-10-11 16:53:00
1:53 PM,59.0,30.9,35,30.10,10.0,SSW,24.2,32.2,N/A,,Partly Cloudy,200,2012-10-11 17:53:00
2:53 PM,61.0,30.0,31,30.08,10.0,SSW,26.5,34.5,N/A,,Partly Cloudy,200,2012-10-11 18:53:00
3:53 PM,61.0,28.9,30,30.06,10.0,SSW,28.8,35.7,N/A,,Partly Cloudy,200,2012-10-11 19:53:00
4:53 PM,62.1,28.9,29,30.05,10.0,SSW,25.3,33.4,N/A,,Partly Cloudy,210,2012-10-11 20:53:00
5:53 PM,60.8,28.4,29,30.04,10.0,SSW,19.6,28.8,N/A,,Partly Cloudy,210,2012-10-11 21:53:00
6:53 PM,57.9,28.9,33,30.06,10.0,SSW,12.7,-,N/A,,Scattered Clouds,210,2012-10-11 22:53:00
7:53 PM,55.9,30.0,37,30.07,10.0,SSW,10.4,-,N/A,,Scattered Clouds,210,2012-10-11 23:53:00
9:53 PM,55.9,32.0,40,30.10,10.0,WNW,11.5,-,N/A,,Overcast,290,2012-10-12 01:53:00
10:53 PM,51.8,39.2,62,30.13,10.0,NW,11.5,-,N/A,,Mostly Cloudy,320,2012-10-12 02:53:00
11:38 PM,50.0,37.4,62,30.15,10.0,NW,12.7,21.9,N/A,,Overcast,310,2012-10-12 03:38:00
11:53 PM,48.9,37.0,64,30.17,10.0,NW,18.4,26.5,N/A,,Overcast,320,2012-10-12 03:53:00